Regional Weather Roundup
Issued by NWS

Home | Current Version | Previous Version | Text Only | Print | Product List | Glossary Off
Versions: 1 2 3 4 5 6 7 8 9 10 11 12 13 14 15 16 17 18 19 20 21 22 23 24 25 26 27 28 29 30 31 32 33 34 35 36 37 38 39 40 41 42 43 44 45 46 47 48 49 50

000
ASUS43 KIND 242009
RWRIN

WEATHER ROUNDUP FOR INDIANA
NATIONAL WEATHER SERVICE INDIANAPOLIS IN
400 PM EDT THU JUL 24 2014

NOTE: "FAIR" INDICATES FEW OR NO CLOUDS BELOW 12,000 FEET WITH NO
SIGNIFICANT WEATHER AND/OR OBSTRUCTIONS TO VISIBILITY.

* - STATION DOES NOT REPORT WEATHER SUCH AS PRECIPITATION OR FOG.

+ - STATION NOT QUALITY CONTROLLED BY THE NATIONAL WEATHER SERVICE.
    USE DATA WITH CAUTION...ESPECIALLY DEWPOINT AND RELATIVE
    HUMIDITY OBSERVATIONS.

INZ001>003-010>013-019-020-242100-
NORTHWEST INDIANA

CITY           SKY/WX    TMP DP  RH WIND       PRES   REMARKS
GARY /AIRPORT/ MOSUNNY   72  55  56 NE14      30.14F
KNOX *+        MOSUNNY   73  52  47 N3        30.11F
LA PORTE +     MOSUNNY   71  54  54 N12       30.13F
MICHIGAN CITY+ SUNNY     68  52  56 N9        30.13F
MONTICELLO +   MOSUNNY   74  57  55 N7        30.11F
RENSSELAER +   MOSUNNY   73  54  49 NE6       30.11F
VALPARAISO     MOSUNNY   73  55  53 NW7       30.12F

$$

LMZ046-743>745-242100-
SOUTHERN LAKE MICHIGAN

STATION/POSITION TIME  TEMP WIND        PRES
                       AIR  DIR/SP/G
                 (UTC) (F)  (DEG/KT/KT) (MB)
MICHIGAN CITY    2000   65  350/ 14/ 15   N/A

$$

INZ004-005-014>016-021>024-242100-
NORTH CENTRAL INDIANA

CITY           SKY/WX    TMP DP  RH WIND       PRES   REMARKS
GOSHEN         MOSUNNY   75  51  43 NW9       30.10F
LOGANSPORT +   PTSUNNY   72  50  46 NE3       30.11F
PERU/GRISSOM   MOSUNNY   75  55  49 VRB5      30.10F
ROCHESTER +    PTSUNNY   77  50  38 NE7       30.11F
SOUTH BEND     MOSUNNY   74  50  42 N7        30.12F
WARSAW +       MOSUNNY   72  52  49 CALM      30.11S

$$

INZ006>009-017-018-025>027-242100-
NORTHEAST INDIANA

CITY           SKY/WX    TMP DP  RH WIND       PRES   REMARKS
ANGOLA *+      SUNNY     73  48  40 NE5       30.10F
AUBURN +       MOSUNNY   77  45  31 NE9       30.10S
FORT WAYNE     MOSUNNY   76  50  40 N6        30.09F
HUNTINGTON +   MOSUNNY   76  50  40 NE7       30.09S

$$

INZ028-029-035-036-043>045-051>053-242100-
WEST CENTRAL INDIANA

CITY           SKY/WX    TMP DP  RH WIND       PRES   REMARKS
GREENCASTLE +  MOSUNNY   75  55  50 NE14G22   30.09F
LAFAYETTE      MOSUNNY   75  52  44 VRB7      30.09F
TERRE HAUTE    MOSUNNY   77  57  50 N9        30.08F

$$

INZ030>032-037>040-046>048-054>057-064-065-242100-
CENTRAL INDIANA

CITY           SKY/WX    TMP DP  RH WIND       PRES   REMARKS
CP ATTERBURY + MOSUNNY   77  52  41 NE10G17   30.09F
COLUMBUS       PTSUNNY   73  54  49 NE12G17   30.08F
INDIANAPOLIS   MOSUNNY   76  51  41 N10G17    30.09F
-EAGLE CREEK   MOSUNNY   75  50  41 N8        30.09F
KOKOMO *+      PTSUNNY   77  54  44 N10       30.10F
MARION +       MOSUNNY   73  49  43 NE3       30.10F
MT COMFORT *+  MOSUNNY   75  55  50 N14       30.10S
SHELBYVILLE    MOSUNNY   78  55  44 N6        30.08F
ZIONSVILLE +   PTSUNNY   73  50  43 E5        30.11F

$$

INZ033-034-041-042-049-050-058-059-242100-
EAST CENTRAL INDIANA

CITY           SKY/WX    TMP DP  RH WIND       PRES   REMARKS
MUNCIE         MOSUNNY   76  51  41 NE12      30.09F

$$

INZ060-061-067>069-081>083-085>088-242100-
SOUTHWEST INDIANA

CITY           SKY/WX    TMP DP  RH WIND       PRES   REMARKS
EVANSVILLE     SUNNY     80  55  42 N13       30.06F
HUNTINGBURG *+ PTSUNNY   79  59  50 NE15      30.06F
WASHINGTON +   PTSUNNY   76  61  60 NE7       30.07S

$$

INZ062-063-066-070>080-084-089>092-242100-
SOUTH CENTRAL AND SOUTHEAST INDIANA

CITY           SKY/WX    TMP DP  RH WIND       PRES   REMARKS
BEDFORD +      MOSUNNY   75  50  41 N8G20     30.07F
BLOOMINGTON    PTSUNNY   76  54  46 NE14G20   30.08F
NORTH VERNON + PTSUNNY   73  55  53 N5        30.09S
SEYMOUR +      MOSUNNY   73  36  25 N12G20    30.07

$$




USA.gov is the U.S. government's official web portal to all federal, state and local government web resources and services.